Location: Woodhurst
(52.3667°N, 0.0667°W)
Time: 05:24:43
(UTC+00:00)

Cosmos 2369 - Pass Details

Date: 19 May 2025
Orbit: 839 x 853 km, 71.0° (Epoch: 13 June)

Event Time Altitude Azimuth Distance (km) Brightness Sun altitude
Rises 21:28:48 0° 329° (NNW) 3,418 9.1 -10.8°
Reaches altitude 10° 21:31:18 10° 333° (NNW) 2,477 7.7 -11.0°
Maximum altitude 21:36:56 60° 54° (NE) 962 4.0 -11.5°
Enters shadow 21:41:36 15° 132° (SE) 2,123 5.2 -11.9°
